{"data":{"norad_id":53475,"intl_designator":"2022-099L","name":"STARLINK-4389","alt_names":[],"object_type":"PAYLOAD","status":"ACTIVE","operator":null,"country":"US","launch_date":"2022-08-12","launch_site_code":"AFWTR","launch_vehicle":null,"mission":null,"orbit_class":"UNKNOWN","rcs_meters":null,"size_class":null,"mass_kg":null,"dimensions":null,"purposes":["comms"],"wikipedia_slug":null,"has_3d_model":false,"image_url":null,"decayed_at":null,"tle_current":{"epoch":"2026-09-20T22:00:03.000096Z","epoch_age_seconds":43056,"freshness":"FRESH","line1":"1 53475U 22099L   26263.91670139  .00848083  00000+0  16075-1 0  9991","line2":"2 53475  97.4950  31.1912 0001492  93.5944 106.2724 15.46014450  5723","mean_motion":15.4601445,"eccentricity":0.0001492,"inclination_deg":97.495,"raan_deg":31.1912,"arg_perigee_deg":93.5944,"mean_anomaly_deg":106.2724,"bstar":0.016075,"rev_number":572,"period_min":93.142725800525,"perigee_km":427.38340646063,"apogee_km":429.41447678561,"semimajor_km":6806.5359416231,"source":"CELESTRAK","updated_at":"2026-09-21T09:00:32.888819Z"}}}